QPF
0.00 0.00 0.00 0.00 0.00 0.00 0.00 0.00 0.00 0.00 0.00 0.00 0.00 0.00 0.00 0.00 0.00 0.00 0.00 0.00 0.00 0.00 0.00 0.00 0.00 0.01 0.01 0.01 0.01 0.01 0.01 0.01 0.01 0.02 0.02 0.02 0.02 0.02 0.03 0.03 0.02 0.02 0.03
0.00 0.00 0.00 0.00 0.00 0.00 0.00 0.00 0.00 0.00 0.00 0.00 0.00 0.00 0.00 0.00 0.00 0.00 0.00 0.00 0.00 0.00 0.00 0.00 0.00 0.00 0.00 0.00 0.00 0.00 0.01 0.01 0.01 0.02 0.02 0.02 0.02 0.03 0.03 0.02 0.01 0.01 0.02
0.00 0.00 0.00 0.00 0.00 0.00 0.00 0.00 0.00 0.00 0.00 0.00 0.00 0.00 0.00 0.00 0.00 0.00 0.00 0.00 0.00 0.00 0.00 0.00 0.00 0.00 0.00 0.00 0.00 0.01 0.01 0.01 0.01 0.01 0.01 0.01 0.02 0.04 0.02 0.02 0.01 0.02 0.02
0.00 0.00 0.00 0.00 0.00 0.00 0.00 0.00 0.00 0.00 0.00 0.00 0.00 0.00 0.00 0.00 0.00 0.00 0.00 0.00 0.00 0.00 0.00 0.00 0.00 0.00 0.00 0.00 0.00 0.00 0.00 0.01 0.01 0.01 0.00 0.00 0.01 0.03 0.03 0.02 0.01 0.01 0.02
0.00 0.00 0.00 0.00 0.00 0.00 0.00 0.00 0.00 0.00 0.00 0.00 0.00 0.00 0.00 0.00 0.00 0.00 0.00 0.00 0.00 0.00 0.00 0.00 0.00 0.00 0.00 0.00 0.00 0.00 0.00 0.01 0.01 0.00 0.00 0.00 0.01 0.02 0.02 0.02 0.01 0.01 0.01
0.00 0.00 0.00 0.00 0.00 0.00 0.00 0.00 0.00 0.00 0.00 0.00 0.00 0.00 0.00 0.00 0.00 0.00 0.00 0.00 0.00 0.00 0.00 0.00 0.00 0.00 0.00 0.00 0.00 0.00 0.00 0.01 0.01 0.00 0.00 0.00 0.01 0.02 0.02 0.01 0.01 0.01 0.01
0.00 0.00 0.00 0.00 0.00 0.00 0.00 0.00 0.00 0.00 0.00 0.00 0.00 0.00 0.00 0.00 0.00 0.00 0.00 0.00 0.00 0.00 0.00 0.00 0.00 0.00 0.00 0.00 0.00 0.00 0.00 0.01 0.00 0.00 0.00 0.00 0.01 0.02 0.02 0.01 0.01 0.01 0.00
0.00 0.00 0.01 0.01 0.01 0.01 0.01 0.01 0.01 0.01 0.01 0.01 0.01 0.00 0.00 0.00 0.00 0.01 0.00 0.00 0.00 0.00 0.00 0.00 0.00 0.00 0.00 0.00 0.00 0.00 0.00 0.01 0.00 0.01 0.01 0.00 0.02 0.03 0.02 0.01 0.01 0.00 0.00
0.00 0.00 0.01 0.01 0.01 0.01 0.01 0.01 0.01 0.01 0.01 0.01 0.01 0.01 0.01 0.00 0.01 0.01 0.01 0.01 0.00 0.00 0.00 0.00 0.00 0.00 0.00 0.00 0.00 0.01 0.01 0.01 0.01 0.01 0.01 0.01 0.02 0.04 0.03 0.02 0.01 0.01 0.00
0.01 0.01 0.01 0.01 0.01 0.01 0.01 0.02 0.02 0.02 0.02 0.02 0.02 0.02 0.02 0.01 0.01 0.01 0.01 0.01 0.01 0.01 0.01 0.01 0.01 0.01 0.00 0.00 0.00 0.01 0.01 0.01 0.01 0.01 0.01 0.01 0.02 0.03 0.03 0.03 0.01 0.01 0.00
0.02 0.02 0.03 0.02 0.02 0.02 0.01 0.02 0.02 0.03 0.03 0.03 0.04 0.04 0.03 0.02 0.02 0.02 0.03 0.02 0.02 0.02 0.02 0.01 0.01 0.02 0.02 0.01 0.00 0.01 0.01 0.00 0.00 0.01 0.01 0.01 0.02 0.04 0.04 0.04 0.03 0.01 0.00
0.02 0.02 0.02 0.02 0.02 0.02 0.02 0.03 0.04 0.04 0.04 0.05 0.06 0.05 0.03 0.03 0.03 0.02 0.03 0.04 0.04 0.05 0.05 0.05 0.05 0.04 0.03 0.03 0.02 0.01 0.01 0.00 0.00 0.01 0.01 0.01 0.03 0.06 0.07 0.05 0.03 0.02 0.01
0.07 0.05 0.04 0.03 0.03 0.03 0.03 0.05 0.07 0.07 0.06 0.07 0.09 0.06 0.05 0.04 0.04 0.04 0.04 0.04 0.05 0.06 0.08 0.10 0.12 0.09 0.07 0.07 0.06 0.04 0.02 0.01 0.00 0.00 0.01 0.01 0.03 0.06 0.09 0.08 0.05 0.03 0.02
0.13 0.10 0.10 0.10 0.11 0.08 0.08 0.08 0.09 0.11 0.10 0.10 0.09 0.08 0.10 0.10 0.08 0.07 0.06 0.06 0.07 0.08 0.10 0.13 0.16 0.16 0.13 0.12 0.10 0.07 0.06 0.03 0.01 0.01 0.01 0.01 0.03 0.06 0.10 0.10 0.07 0.05 0.03
0.16 0.15 0.16 0.13 0.14 0.15 0.18 0.19 0.21 0.25 0.24 0.21 0.17 0.15 0.15 0.16 0.16 0.15 0.12 0.11 0.11 0.12 0.14 0.19 0.23 0.25 0.23 0.19 0.14 0.10 0.08 0.05 0.03 0.02 0.01 0.01 0.04 0.07 0.12 0.14 0.12 0.09 0.06
0.16 0.16 0.15 0.16 0.21 0.24 0.24 0.27 0.37 0.43 0.37 0.33 0.26 0.24 0.23 0.24 0.24 0.20 0.16 0.16 0.13 0.14 0.19 0.23 0.26 0.30 0.30 0.30 0.22 0.13 0.08 0.07 0.06 0.04 0.02 0.03 0.05 0.09 0.13 0.17 0.17 0.15 0.10
0.15 0.16 0.20 0.24 0.29 0.32 0.34 0.42 0.38 0.38 0.36 0.34 0.38 0.39 0.37 0.35 0.31 0.26 0.22 0.19 0.16 0.19 0.21 0.22 0.24 0.27 0.29 0.32 0.28 0.20 0.15 0.11 0.09 0.08 0.06 0.05 0.06 0.08 0.14 0.17 0.17 0.18 0.15
0.13 0.14 0.19 0.23 0.31 0.36 0.37 0.35 0.31 0.32 0.28 0.28 0.31 0.34 0.33 0.30 0.26 0.22 0.21 0.19 0.17 0.18 0.21 0.20 0.20 0.21 0.25 0.30 0.30 0.25 0.18 0.13 0.10 0.10 0.09 0.08 0.06 0.05 0.10 0.19 0.18 0.18 0.19
0.13 0.14 0.16 0.18 0.21 0.23 0.23 0.21 0.21 0.22 0.22 0.20 0.19 0.19 0.18 0.17 0.16 0.15 0.13 0.12 0.11 0.12 0.13 0.13 0.14 0.15 0.16 0.20 0.23 0.21 0.18 0.15 0.12 0.11 0.10 0.08 0.07 0.06 0.06 0.12 0.21 0.18 0.20
0.10 0.10 0.10 0.11 0.11 0.13 0.16 0.17 0.17 0.16 0.17 0.15 0.12 0.10 0.11 0.11 0.10 0.10 0.09 0.09 0.10 0.10 0.11 0.12 0.12 0.12 0.12 0.13 0.17 0.17 0.16 0.13 0.12 0.10 0.09 0.08 0.07 0.06 0.06 0.07 0.12 0.15 0.20
0.06 0.07 0.07 0.07 0.07 0.08 0.07 0.07 0.06 0.07 0.07 0.07 0.06 0.05 0.04 0.04 0.04 0.04 0.04 0.05 0.05 0.05 0.05 0.06 0.08 0.10 0.13 0.14 0.16 0.15 0.15 0.14 0.12 0.09 0.09 0.09 0.07 0.07 0.08 0.08 0.10 0.10 0.10
0.03 0.03 0.02 0.02 0.02 0.01 0.02 0.01 0.01 0.02 0.03 0.03 0.03 0.03 0.03 0.03 0.02 0.02 0.02 0.02 0.02 0.02 0.02 0.02 0.03 0.04 0.09 0.12 0.15 0.16 0.14 0.13 0.09 0.08 0.08 0.07 0.06 0.07 0.07 0.07 0.09 0.09 0.09
0.01 0.01 0.00 0.00 0.00 0.00 0.00 0.00 0.01 0.01 0.01 0.01 0.02 0.02 0.03 0.03 0.04 0.04 0.03 0.02 0.02 0.03 0.02 0.02 0.02 0.04 0.07 0.10 0.13 0.14 0.11 0.08 0.06 0.07 0.07 0.06 0.06 0.06 0.06 0.06 0.06 0.06 0.06
0.01 0.01 0.00 0.00 0.00 0.00 0.00 0.00 0.00 0.00 0.00 0.00 0.00 0.01 0.01 0.01 0.02 0.03 0.03 0.02 0.02 0.02 0.02 0.02 0.03 0.04 0.06 0.10 0.13 0.12 0.09 0.05 0.06 0.05 0.06 0.06 0.06 0.05 0.05 0.05 0.05 0.04 0.04
0.00 0.00 0.00 0.00 0.00 0.00 0.00 0.00 0.00 0.00 0.00 0.00 0.00 0.00 0.01 0.01 0.01 0.02 0.02 0.02 0.02 0.02 0.02 0.02 0.02 0.04 0.05 0.08 0.13 0.17 0.15 0.09 0.06 0.06 0.05 0.05 0.05 0.04 0.05 0.06 0.06 0.06 0.05
0.00 0.00 0.00 0.00 0.00 0.00 0.00 0.00 0.00 0.00 0.00 0.00 0.00 0.00 0.00 0.00 0.01 0.01 0.02 0.02 0.02 0.02 0.02 0.03 0.02 0.02 0.03 0.05 0.10 0.15 0.21 0.19 0.14 0.10 0.07 0.06 0.06 0.05 0.06 0.06 0.06 0.05 0.05
MSLP
1010.11 1010.02 1010.05 1010.21 1010.46 1010.76 1011.04 1011.27 1011.44 1011.56 1011.66 1011.78 1011.97 1012.23 1012.58 1012.99 1013.42 1013.84 1014.21 1014.51 1014.73 1014.89 1015.00 1015.08 1015.16 1015.25 1015.36 1015.47 1015.59 1015.70 1015.82 1015.93 1016.05 1016.17 1016.30 1016.44 1016.58 1016.73 1016.88 1017.03 1017.19 1017.36 1017.54
1009.84 1009.85 1009.96 1010.20 1010.50 1010.84 1011.16 1011.42 1011.62 1011.76 1011.88 1012.03 1012.23 1012.50 1012.84 1013.24 1013.65 1014.04 1014.37 1014.64 1014.84 1015.00 1015.11 1015.21 1015.31 1015.42 1015.52 1015.63 1015.73 1015.84 1015.94 1016.05 1016.18 1016.32 1016.48 1016.66 1016.84 1017.01 1017.18 1017.34 1017.49 1017.65 1017.82
1009.51 1009.60 1009.80 1010.11 1010.48 1010.88 1011.25 1011.56 1011.80 1011.99 1012.15 1012.32 1012.54 1012.81 1013.14 1013.50 1013.86 1014.19 1014.48 1014.71 1014.89 1015.03 1015.16 1015.28 1015.40 1015.53 1015.65 1015.77 1015.87 1015.97 1016.07 1016.19 1016.33 1016.50 1016.69 1016.90 1017.11 1017.31 1017.49 1017.65 1017.80 1017.95 1018.12
1009.17 1009.34 1009.62 1010.00 1010.44 1010.90 1011.33 1011.70 1011.99 1012.22 1012.42 1012.62 1012.84 1013.10 1013.40 1013.71 1014.02 1014.29 1014.52 1014.71 1014.87 1015.01 1015.15 1015.30 1015.46 1015.62 1015.77 1015.90 1016.01 1016.12 1016.23 1016.36 1016.51 1016.71 1016.93 1017.17 1017.40 1017.61 1017.79 1017.95 1018.10 1018.25 1018.43
1008.92 1009.15 1009.48 1009.92 1010.42 1010.94 1011.42 1011.83 1012.16 1012.43 1012.65 1012.86 1013.08 1013.33 1013.59 1013.86 1014.11 1014.33 1014.52 1014.67 1014.82 1014.97 1015.13 1015.31 1015.51 1015.71 1015.89 1016.04 1016.18 1016.30 1016.42 1016.56 1016.74 1016.95 1017.19 1017.44 1017.68 1017.89 1018.08 1018.24 1018.38 1018.54 1018.72
1008.80 1009.06 1009.44 1009.93 1010.47 1011.02 1011.52 1011.96 1012.31 1012.58 1012.81 1013.02 1013.23 1013.46 1013.70 1013.94 1014.15 1014.34 1014.49 1014.64 1014.78 1014.94 1015.13 1015.35 1015.59 1015.82 1016.03 1016.21 1016.37 1016.50 1016.64 1016.79 1016.98 1017.19 1017.44 1017.69 1017.93 1018.14 1018.31 1018.47 1018.61 1018.77 1018.96
1008.85 1009.14 1009.53 1010.04 1010.59 1011.15 1011.66 1012.08 1012.42 1012.68 1012.89 1013.09 1013.29 1013.51 1013.73 1013.95 1014.15 1014.33 1014.48 1014.62 1014.78 1014.96 1015.17 1015.42 1015.69 1015.95 1016.19 1016.40 1016.57 1016.71 1016.86 1017.01 1017.20 1017.42 1017.65 1017.89 1018.12 1018.31 1018.48 1018.62 1018.77 1018.93 1019.13
1009.08 1009.36 1009.77 1010.27 1010.81 1011.35 1011.82 1012.21 1012.51 1012.73 1012.92 1013.09 1013.28 1013.49 1013.72 1013.94 1014.14 1014.33 1014.49 1014.65 1014.82 1015.02 1015.25 1015.52 1015.80 1016.08 1016.34 1016.55 1016.74 1016.89 1017.04 1017.19 1017.37 1017.58 1017.80 1018.02 1018.22 1018.40 1018.55 1018.69 1018.83 1019.00 1019.21
1009.46 1009.73 1010.13 1010.61 1011.12 1011.61 1012.03 1012.36 1012.60 1012.77 1012.92 1013.07 1013.24 1013.45 1013.69 1013.92 1014.15 1014.35 1014.53 1014.70 1014.88 1015.08 1015.32 1015.59 1015.88 1016.16 1016.42 1016.64 1016.83 1016.99 1017.14 1017.29 1017.46 1017.66 1017.86 1018.05 1018.23 1018.39 1018.53 1018.66 1018.80 1018.98 1019.21
1009.93 1010.19 1010.58 1011.03 1011.50 1011.94 1012.29 1012.54 1012.71 1012.83 1012.93 1013.05 1013.21 1013.42 1013.67 1013.92 1014.16 1014.38 1014.57 1014.74 1014.92 1015.12 1015.35 1015.60 1015.87 1016.15 1016.40 1016.62 1016.81 1016.98 1017.13 1017.29 1017.45 1017.63 1017.81 1017.99 1018.15 1018.30 1018.42 1018.55 1018.70 1018.89 1019.13
1010.45 1010.71 1011.08 1011.50 1011.93 1012.29 1012.57 1012.75 1012.86 1012.91 1012.97 1013.07 1013.22 1013.42 1013.67 1013.93 1014.17 1014.39 1014.58 1014.75 1014.91 1015.08 1015.28 1015.51 1015.76 1016.01 1016.26 1016.48 1016.67 1016.85 1017.01 1017.17 1017.33 1017.50 1017.67 1017.83 1017.99 1018.12 1018.25 1018.39 1018.54 1018.74 1018.99
1010.98 1011.24 1011.59 1011.99 1012.36 1012.66 1012.87 1012.99 1013.03 1013.04 1013.05 1013.12 1013.25 1013.44 1013.68 1013.93 1014.17 1014.37 1014.54 1014.69 1014.82 1014.96 1015.12 1015.31 1015.53 1015.76 1015.99 1016.22 1016.42 1016.61 1016.78 1016.94 1017.11 1017.28 1017.44 1017.60 1017.75 1017.89 1018.03 1018.17 1018.35 1018.56 1018.83
1011.49 1011.75 1012.09 1012.44 1012.76 1013.00 1013.15 1013.21 1013.21 1013.17 1013.16 1013.20 1013.30 1013.47 1013.68 1013.91 1014.12 1014.30 1014.45 1014.56 1014.65 1014.75 1014.88 1015.03 1015.22 1015.43 1015.66 1015.88 1016.10 1016.29 1016.48 1016.65 1016.82 1016.98 1017.14 1017.30 1017.45 1017.60 1017.75 1017.92 1018.12 1018.35 1018.63
1011.97 1012.22 1012.53 1012.83 1013.10 1013.29 1013.39 1013.41 1013.37 1013.31 1013.27 1013.28 1013.36 1013.50 1013.67 1013.86 1014.04 1014.19 1014.31 1014.39 1014.45 1014.53 1014.62 1014.74 1014.91 1015.10 1015.31 1015.53 1015.75 1015.95 1016.14 1016.32 1016.48 1016.63 1016.78 1016.93 1017.08 1017.24 1017.41 1017.61 1017.84 1018.10 1018.40
1012.41 1012.63 1012.89 1013.15 1013.36 1013.50 1013.56 1013.56 1013.50 1013.43 1013.38 1013.37 1013.41 1013.51 1013.64 1013.80 1013.94 1014.07 1014.16 1014.22 1014.28 1014.33 1014.41 1014.51 1014.65 1014.83 1015.02 1015.23 1015.44 1015.63 1015.81 1015.97 1016.11 1016.24 1016.37 1016.50 1016.64 1016.80 1016.99 1017.22 1017.48 1017.77 1018.10
1012.81 1012.99 1013.19 1013.38 1013.53 1013.63 1013.67 1013.65 1013.60 1013.53 1013.47 1013.44 1013.46 1013.52 1013.61 1013.72 1013.84 1013.95 1014.04 1014.11 1014.17 1014.23 1014.30 1014.40 1014.52 1014.67 1014.84 1015.02 1015.20 1015.37 1015.51 1015.63 1015.74 1015.82 1015.91 1016.00 1016.11 1016.27 1016.46 1016.71 1017.01 1017.34 1017.71
1013.17 1013.29 1013.41 1013.53 1013.63 1013.70 1013.73 1013.72 1013.68 1013.63 1013.57 1013.53 1013.52 1013.54 1013.60 1013.68 1013.78 1013.89 1013.99 1014.09 1014.17 1014.25 1014.33 1014.42 1014.52 1014.64 1014.77 1014.91 1015.04 1015.16 1015.25 1015.32 1015.35 1015.38 1015.39 1015.43 1015.50 1015.63 1015.82 1016.08 1016.41 1016.78 1017.20
1013.51 1013.54 1013.59 1013.63 1013.68 1013.73 1013.77 1013.79 1013.78 1013.76 1013.71 1013.66 1013.62 1013.61 1013.62 1013.68 1013.77 1013.89 1014.02 1014.15 1014.27 1014.38 1014.47 1014.55 1014.63 1014.71 1014.80 1014.88 1014.95 1015.00 1015.03 1015.02 1014.98 1014.91 1014.85 1014.81 1014.81 1014.89 1015.06 1015.32 1015.67 1016.09 1016.54
1013.82 1013.77 1013.73 1013.71 1013.73 1013.77 1013.83 1013.89 1013.93 1013.94 1013.91 1013.85 1013.79 1013.73 1013.71 1013.74 1013.82 1013.94 1014.10 1014.27 1014.43 1014.56 1014.66 1014.74 1014.79 1014.83 1014.85 1014.87 1014.88 1014.87 1014.82 1014.74 1014.61 1014.46 1014.30 1014.16 1014.08 1014.10 1014.22 1014.46 1014.82 1015.26 1015.76
1014.10 1013.98 1013.87 1013.80 1013.80 1013.85 1013.95 1014.06 1014.15 1014.19 1014.18 1014.11 1014.02 1013.92 1013.85 1013.84 1013.90 1014.03 1014.20 1014.39 1014.58 1014.73 1014.83 1014.89 1014.91 1014.90 1014.88 1014.85 1014.80 1014.73 1014.62 1014.47 1014.27 1014.03 1013.77 1013.53 1013.35 1013.28 1013.33 1013.53 1013.87 1014.33 1014.86
1014.37 1014.19 1014.02 1013.92 1013.90 1013.98 1014.12 1014.29 1014.43 1014.51 1014.51 1014.43 1014.30 1014.15 1014.03 1013.98 1014.00 1014.11 1014.28 1014.47 1014.66 1014.81 1014.90 1014.94 1014.92 1014.88 1014.81 1014.74 1014.66 1014.56 1014.42 1014.22 1013.96 1013.64 1013.28 1012.94 1012.65 1012.47 1012.44 1012.57 1012.87 1013.32 1013.87
1014.62 1014.39 1014.19 1014.06 1014.06 1014.16 1014.35 1014.56 1014.76 1014.87 1014.88 1014.78 1014.61 1014.41 1014.23 1014.12 1014.09 1014.16 1014.29 1014.47 1014.63 1014.76 1014.82 1014.83 1014.78 1014.71 1014.62 1014.54 1014.45 1014.35 1014.20 1013.99 1013.69 1013.30 1012.87 1012.42 1012.01 1011.71 1011.57 1011.61 1011.85 1012.27 1012.82
1014.86 1014.60 1014.37 1014.24 1014.24 1014.37 1014.59 1014.85 1015.08 1015.22 1015.23 1015.12 1014.91 1014.65 1014.41 1014.23 1014.14 1014.15 1014.23 1014.36 1014.48 1014.56 1014.58 1014.55 1014.47 1014.38 1014.30 1014.23 1014.16 1014.09 1013.96 1013.76 1013.44 1013.02 1012.51 1011.96 1011.44 1011.02 1010.75 1010.69 1010.85 1011.20 1011.72
1015.09 1014.82 1014.57 1014.43 1014.43 1014.57 1014.82 1015.10 1015.35 1015.50 1015.51 1015.38 1015.14 1014.84 1014.55 1014.31 1014.15 1014.09 1014.11 1014.17 1014.22 1014.24 1014.21 1014.14 1014.04 1013.94 1013.87 1013.83 1013.81 1013.78 1013.70 1013.52 1013.21 1012.76 1012.19 1011.55 1010.92 1010.38 1009.99 1009.80 1009.86 1010.14 1010.62
1015.32 1015.03 1014.78 1014.63 1014.62 1014.76 1015.00 1015.28 1015.53 1015.69 1015.69 1015.55 1015.29 1014.96 1014.63 1014.34 1014.12 1014.00 1013.95 1013.93 1013.91 1013.87 1013.78 1013.67 1013.54 1013.44 1013.39 1013.38 1013.41 1013.43 1013.40 1013.25 1012.95 1012.48 1011.87 1011.16 1010.43 1009.77 1009.26 1008.96 1008.91 1009.11 1009.52
1015.54 1015.25 1014.99 1014.82 1014.78 1014.89 1015.11 1015.38 1015.61 1015.75 1015.75 1015.61 1015.34 1015.00 1014.65 1014.33 1014.07 1013.89 1013.78 1013.69 1013.60 1013.49 1013.35 1013.19 1013.04 1012.94 1012.90 1012.92 1012.99 1013.05 1013.05 1012.93 1012.64 1012.15 1011.50 1010.73 1009.92 1009.17 1008.56 1008.16 1008.01 1008.13 1008.49
Thickness
5819 5818 5814 5811 5808 5804 5802 5800 5797 5795 5793 5790 5788 5785 5783 5780 5778 5776 5774 5772 5770 5769 5768 5767 5765 5764 5763 5762 5761 5760 5759 5757 5756 5754 5753 5751 5750 5749 5748 5746 5745 5743 5742
5825 5819 5814 5809 5806 5802 5799 5797 5795 5792 5790 5788 5786 5783 5781 5778 5776 5774 5772 5770 5769 5768 5766 5765 5764 5763 5762 5761 5759 5758 5757 5756 5755 5753 5752 5750 5749 5748 5747 5746 5744 5743 5741
5824 5818 5813 5808 5804 5800 5796 5794 5792 5790 5787 5785 5783 5781 5779 5776 5774 5772 5770 5769 5767 5766 5765 5763 5762 5761 5760 5759 5758 5757 5756 5755 5753 5752 5750 5749 5748 5747 5746 5745 5744 5742 5741
5822 5816 5811 5806 5802 5798 5794 5791 5789 5787 5784 5782 5780 5778 5776 5774 5772 5770 5768 5767 5765 5764 5762 5761 5760 5759 5758 5757 5756 5755 5754 5753 5752 5750 5748 5748 5747 5746 5745 5744 5743 5741 5740
5819 5813 5809 5804 5799 5795 5791 5788 5785 5783 5781 5779 5777 5775 5773 5771 5769 5768 5766 5764 5763 5761 5760 5759 5757 5756 5755 5754 5753 5752 5752 5751 5750 5748 5747 5746 5746 5745 5744 5743 5742 5740 5739
5815 5810 5805 5800 5796 5792 5788 5785 5782 5780 5778 5776 5773 5771 5769 5767 5766 5764 5763 5761 5760 5759 5757 5756 5754 5753 5752 5751 5751 5750 5749 5748 5748 5746 5746 5745 5744 5743 5743 5741 5741 5739 5738
5811 5806 5802 5797 5792 5788 5785 5782 5779 5776 5774 5772 5769 5768 5766 5764 5762 5761 5759 5758 5757 5755 5754 5753 5751 5750 5749 5748 5747 5747 5746 5746 5745 5744 5744 5743 5742 5742 5741 5740 5739 5738 5737
5807 5802 5798 5794 5790 5786 5782 5778 5775 5773 5770 5768 5766 5764 5762 5761 5759 5757 5756 5754 5753 5752 5751 5749 5748 5747 5746 5745 5744 5743 5743 5743 5743 5742 5741 5741 5740 5740 5739 5739 5738 5737 5736
5801 5797 5794 5790 5787 5783 5779 5775 5772 5770 5768 5765 5763 5761 5759 5758 5756 5755 5753 5752 5750 5749 5747 5746 5746 5744 5743 5742 5741 5740 5739 5740 5740 5740 5739 5739 5738 5738 5738 5737 5736 5736 5735
5794 5791 5789 5785 5782 5778 5775 5772 5769 5766 5764 5762 5760 5758 5756 5755 5753 5752 5750 5749 5747 5746 5744 5743 5742 5741 5740 5739 5738 5737 5736 5736 5736 5737 5737 5737 5737 5736 5736 5736 5735 5734 5734
5785 5783 5782 5779 5777 5773 5770 5768 5766 5763 5761 5758 5756 5755 5754 5752 5751 5750 5748 5745 5744 5743 5741 5740 5739 5738 5737 5736 5736 5735 5734 5733 5733 5734 5734 5735 5735 5735 5735 5734 5734 5733 5733
5777 5776 5774 5773 5770 5768 5765 5763 5761 5759 5757 5755 5753 5752 5750 5749 5747 5746 5745 5743 5741 5740 5738 5737 5736 5734 5734 5733 5732 5732 5731 5731 5730 5731 5732 5732 5733 5733 5733 5733 5732 5732 5732
5770 5768 5766 5765 5764 5762 5759 5757 5755 5753 5751 5750 5748 5747 5745 5744 5743 5742 5741 5740 5738 5737 5736 5735 5733 5731 5730 5730 5728 5728 5728 5728 5728 5728 5729 5730 5731 5731 5732 5732 5731 5731 5731
5762 5761 5759 5759 5757 5755 5753 5750 5749 5747 5745 5744 5743 5741 5740 5738 5737 5736 5736 5735 5734 5733 5732 5731 5730 5729 5727 5726 5726 5725 5725 5725 5726 5726 5727 5728 5729 5730 5730 5730 5730 5730 5730
5756 5754 5754 5754 5752 5750 5748 5745 5742 5740 5738 5737 5736 5735 5734 5733 5732 5731 5730 5730 5730 5729 5728 5727 5726 5725 5725 5723 5722 5723 5724 5724 5724 5724 5725 5726 5727 5729 5729 5729 5729 5729 5729
5750 5749 5749 5749 5748 5745 5742 5738 5737 5735 5734 5731 5731 5730 5729 5727 5726 5726 5726 5725 5725 5724 5724 5723 5722 5722 5721 5720 5719 5720 5721 5721 5722 5723 5723 5724 5725 5727 5728 5729 5729 5728 5728
5744 5744 5744 5743 5741 5739 5736 5733 5732 5731 5729 5726 5725 5725 5724 5721 5720 5720 5719 5719 5719 5719 5719 5719 5718 5718 5718 5718 5717 5717 5718 5719 5720 5721 5722 5722 5723 5725 5727 5728 5728 5728 5727
5736 5736 5736 5737 5734 5732 5729 5727 5725 5724 5723 5720 5719 5718 5717 5715 5714 5714 5713 5713 5714 5714 5714 5714 5714 5713 5713 5713 5713 5715 5715 5716 5718 5719 5720 5720 5721 5723 5725 5727 5728 5727 5727
5728 5727 5727 5727 5725 5723 5721 5720 5717 5716 5715 5714 5712 5710 5710 5709 5709 5709 5708 5707 5707 5707 5708 5709 5709 5708 5708 5708 5709 5711 5712 5713 5715 5717 5718 5719 5720 5721 5724 5726 5727 5727 5727
5720 5719 5719 5718 5716 5714 5713 5710 5708 5707 5706 5705 5704 5702 5702 5702 5702 5702 5701 5701 5700 5700 5701 5702 5702 5703 5703 5703 5705 5707 5709 5710 5712 5713 5716 5717 5719 5720 5722 5724 5726 5727 5726
5712 5710 5709 5708 5706 5705 5702 5699 5697 5696 5696 5696 5695 5694 5694 5694 5694 5694 5693 5693 5692 5692 5693 5694 5694 5695 5696 5697 5697 5698 5702 5706 5708 5710 5713 5714 5717 5719 5720 5721 5723 5725 5725
5704 5701 5700 5698 5697 5695 5693 5691 5689 5687 5686 5686 5685 5685 5685 5684 5685 5686 5685 5685 5684 5684 5685 5686 5686 5687 5688 5690 5690 5689 5691 5696 5703 5708 5709 5711 5714 5716 5718 5719 5720 5722 5724
5696 5695 5693 5691 5688 5687 5685 5682 5680 5677 5676 5675 5675 5675 5675 5675 5676 5676 5676 5676 5676 5676 5676 5677 5678 5678 5679 5682 5684 5683 5683 5686 5693 5700 5705 5708 5711 5712 5715 5717 5719 5721 5722
5690 5689 5685 5683 5680 5678 5676 5673 5670 5666 5664 5664 5664 5664 5665 5666 5666 5666 5667 5667 5667 5667 5668 5669 5670 5670 5671 5673 5676 5679 5681 5683 5683 5689 5697 5703 5706 5709 5712 5716 5718 5720 5721
5685 5682 5678 5675 5672 5670 5667 5665 5661 5658 5656 5655 5654 5654 5654 5655 5655 5656 5657 5657 5658 5658 5659 5660 5661 5662 5664 5666 5668 5670 5672 5675 5679 5681 5686 5693 5699 5705 5709 5713 5716 5718 5719
5678 5675 5672 5669 5666 5663 5660 5658 5654 5651 5649 5647 5645 5644 5644 5644 5645 5646 5647 5648 5648 5649 5650 5651 5652 5654 5656 5658 5660 5662 5664 5667 5671 5675 5679 5684 5690 5698 5703 5707 5711 5715 5716